sat.trackr.live / text

‹ back to catalog

STARLINK-4214

NORAD 52877 · 2022-062AZ

PAYLOAD ACTIVE UNKNOWN

§ Identity

Operator
Country
US
Launch date
2022-06-17
Launch site
AFETR
Launch vehicle
Mass (kg)
RCS (m²)

Purposes: comms

External: N2YO · Heavens-Above · Gunter

§ Orbital elements

Epoch: 2026-05-25T02:25:26.097600Z

Period
95.44 min
Inclination
53.2139°
Eccentricity
0.0001750
Mean motion
15.08831567 rev/d
Perigee alt
538.6 km
Apogee alt
541.0 km
Semi-major
6,917.9 km
B*
1.7092e-4
RAAN
31.1039°
Arg perigee
88.2562°
Mean anomaly
271.8630°
Rev number
21,760

§ Raw data

STARLINK-42141 52877U 22062AZ  26145.10099650  .00002433  00000+0  17092-3 0  99922 52877  53.2139  31.1039 0001750  88.2562 271.8630 15.08831567217602

JSON: /api/v1/satellites/52877 · /tle

For live sub-satellite position, see the globe view (requires WebGL).

§ Visibility from observer

Set your observer location to see the next 7 days of passes ≥ 10°. The values pass through the URL so the page stays shareable.

No JS? Fill the form by hand. The geolocation button needs JavaScript.